Location: Caltech
(34.1382°N, 118.1253°W)
Time: 00:09:51
(UTC-07:00)

ALOS - Visible Passes

Search period start: 26 September 2017 00:00
Search period end: 06 October 2017 00:00
Orbit: 684 x 687 km, 97.8° (Epoch: 25 September)

Date Brightness Start Highest point End Pass type
(mag) Time Alt. Az. Time Alt. Az. Time Alt. Az.
26 Sep 2.4 19:12:14 10° SSE 19:16:46 54° ENE 19:21:19 10° N visible
26 Sep 5.4 20:52:47 10° WSW 20:54:28 12° W 20:56:09 10° WNW visible
27 Sep 3.0 19:49:39 10° S 19:54:12 56° W 19:58:48 10° NNW visible
28 Sep 4.8 20:28:20 10° SW 20:31:50 21° W 20:35:22 10° NW visible
29 Sep 2.2 19:27:06 10° SSE 19:31:45 82° ENE 19:36:27 10° N visible
30 Sep 3.8 20:04:59 10° SSW 20:09:16 37° W 20:13:36 10° NNW visible
01 Oct 2.6 19:04:58 10° SE 19:09:23 45° ENE 19:13:50 10° N visible
01 Oct 5.3 20:44:32 10° SW 20:47:00 14° W 20:49:28 10° WNW visible
02 Oct 2.6 19:42:10 10° S 19:46:47 67° W 19:51:27 10° NNW visible
03 Oct 4.5 20:20:34 10° SSW 20:24:23 25° W 20:28:13 10° NW visible
04 Oct 2.2 19:19:44 10° SSE 19:24:22 69° ENE 19:29:00 10° N visible
05 Oct 3.4 19:57:25 10° S 20:01:50 44° W 20:06:19 10° NNW visible
